Location: Newark
(39.9288°N, 0.1974°W)
Time: 02:14:36
(UTC+00:00)

Envisat - Visible Passes

Search period start: 14 November 2019 00:00
Search period end: 24 November 2019 00:00
Orbit: 764 x 766 km, 98.1° (Epoch: 13 November)

Date Brightness Start Highest point End Pass type
(mag) Time Alt. Az. Time Alt. Az. Time Alt. Az.
14 Nov 5.9 05:49:41 10° NE 05:53:20 20° E 05:56:58 10° SE visible
14 Nov 4.4 18:41:42 10° SSW 18:46:24 38° W 18:51:08 10° NNW visible
15 Nov 3.0 18:04:28 10° SSE 18:09:33 86° WSW 18:14:40 10° NNW visible
16 Nov 5.0 06:14:23 10° NNE 06:19:01 34° E 06:23:37 10° SSE visible
16 Nov 3.3 17:28:08 10° SE 17:32:53 42° ENE 17:37:40 10° N visible
16 Nov 5.4 19:08:13 10° SW 19:12:04 22° W 19:15:56 10° NW visible
17 Nov 6.1 05:39:00 10° NE 05:41:57 15° E 05:44:52 10° SE visible
17 Nov 4.0 18:30:11 10° S 18:35:05 48° W 18:40:00 10° NNW visible
18 Nov 2.9 17:53:14 10° SSE 17:58:17 75° ENE 18:03:22 10° N visible
18 Nov 6.1 19:36:02 10° WSW 19:37:50 12° W 19:39:39 10° WNW visible
19 Nov 5.4 06:03:23 10° NE 06:07:41 27° E 06:11:57 10° SSE visible
19 Nov 3.6 17:17:10 10° SE 17:21:42 34° ENE 17:26:14 10° N visible
19 Nov 5.0 18:56:26 10° SSW 19:00:42 27° W 19:05:01 10° NW visible
20 Nov 6.3 05:28:46 10° ENE 05:30:33 12° E 05:32:20 10° ESE visible
20 Nov 3.5 18:18:46 10° S 18:23:47 62° W 18:28:50 10° NNW visible
21 Nov 3.0 17:42:05 10° SSE 17:47:03 59° ENE 17:52:03 10° N visible
21 Nov 5.9 19:23:30 10° SW 19:26:26 15° W 19:29:23 10° NW visible
22 Nov 5.8 05:52:28 10° NE 05:56:19 21° E 06:00:09 10° SE visible
22 Nov 3.9 17:06:18 10° ESE 17:10:30 27° ENE 17:14:44 10° N visible
22 Nov 4.6 18:44:46 10° SSW 18:49:22 34° W 18:54:00 10° NNW visible
23 Nov 3.1 18:07:25 10° S 18:12:29 79° WSW 18:17:37 10° NNW visible
